Home > Weather > Norwich > Past weeks

Flag for United Kingdom Past Weather in Norwich, England, United Kingdom — Yesterday and Last 2 Weeks

Now
66 °F

Passing clouds.


Feels Like: 66 °F
Forecast: 58 / 67 °F
Wind: 8 mph from East

Location: Norwich Weather Centre

Current Time: Jul 27, 2016 at 6:24:00 PM

Latest Report: Jul 27, 2016 at 5:50 PM


Visibility: N/A

Pressure: 29.95 "Hg

Humidity: 78%

Dew Point: 59 °F

Location of NorwichLocation

Past Weather in Norwich — Graph

°F

Norwich Temperature Yesterday

Maximum temperature yesterday: 73 °F (at 12:20 PM)
Minimum temperature yesterday: 54 °F (at 4:20 AM)
Average temperature yesterday: 65 °F

High & Low Weather Summary for the Past Weeks

 TemperatureHumidityPressure
High84 °F (Jul 19, 2:50 PM)100% (Jul 12, 11:50 PM)30.27 "Hg (Jul 12, 11:50 PM)
Low48 °F (Jul 14, 1:50 AM)32% (Jul 18, 3:50 PM)29.71 "Hg (Jul 20, 10:50 AM)
Average66 °F77%30.07 "Hg
* Reported Jul 12 4:20 PM — Jul 27 4:50 PM, Norwich, Weather by CustomWeather, © 2016

Note: Actual official high and low records may vary slightly from our data, if they occured in-between our weather recording intervals... More about our weather records

Advertising

Norwich Weather History for the Previous 24 Hours

Scroll right to see more
 ConditionsComfort  
Time TempWeatherWind HumidityBarometerVisibility
4:50 PM
Wed, Jul 27
70 °FPassing clouds.7 mph73%29.95 "HgN/A
4:20 PM70 °FScattered clouds.9 mph73%29.95 "HgN/A
3:50 PM70 °FPassing clouds.8 mph73%29.95 "HgN/A
3:20 PM70 °FScattered clouds.9 mph78%29.95 "HgN/A
2:50 PM68 °FScattered clouds.8 mph78%29.95 "HgN/A
2:20 PM68 °FScattered clouds.10 mph78%29.95 "HgN/A
1:50 PM68 °FScattered clouds.8 mph83%29.92 "HgN/A
1:20 PM66 °FScattered showers. Broken clouds.8 mph94%29.92 "HgN/A
12:50 PM68 °FLight rain. Broken clouds.10 mph83%29.92 "HgN/A
12:20 PM68 °FBroken clouds.12 mph88%29.92 "HgN/A
11:50 AM66 °FDrizzle. Broken clouds.12 mph94%29.92 "HgN/A
11:20 AM64 °FDrizzle. Broken clouds.13 mph94%29.92 "Hg4 mi
10:50 AM64 °FMostly cloudy.13 mph100%29.92 "Hg6 mi
10:20 AM63 °FRain. Mostly cloudy.12 mph100%29.92 "Hg4 mi
9:50 AM63 °FRain. Broken clouds.10 mph100%29.92 "Hg2 mi
9:20 AM63 °FLight rain. Broken clouds.12 mph100%29.92 "Hg3 mi
8:50 AM63 °FRain. Cloudy.12 mph94%29.92 "Hg3 mi
8:20 AM63 °FLight rain. Mostly cloudy.13 mph94%29.92 "Hg5 mi
7:50 AM63 °FLight rain. Partly sunny.13 mph94%29.92 "HgN/A
7:20 AM63 °FLight rain. Broken clouds.12 mph94%29.92 "HgN/A
6:50 AM63 °FLight rain. Passing clouds.12 mph88%29.92 "HgN/A
6:20 AM63 °FPassing clouds.10 mph88%29.95 "HgN/A
5:50 AM63 °FLight rain. Passing clouds.10 mph88%29.95 "HgN/A
5:20 AM63 °FPassing clouds.10 mph88%29.95 "HgN/A
4:50 AM63 °FPassing clouds.9 mph83%29.95 "HgN/A
4:20 AM63 °FPartly cloudy.9 mph83%29.98 "HgN/A
3:50 AM63 °FPassing clouds.8 mph83%29.98 "HgN/A
3:20 AM63 °FMild.9 mph83%29.98 "HgN/A
2:50 AM63 °FMild.7 mph83%30.01 "HgN/A
2:20 AM63 °FMild.7 mph83%30.01 "HgN/A
1:50 AM63 °FMild.7 mph83%30.01 "HgN/A
1:20 AM63 °FMild.6 mph77%30.04 "HgN/A
12:50 AM64 °FMild.8 mph78%30.04 "HgN/A
12:20 AM64 °FMild.8 mph73%30.04 "HgN/A
11:50 PM
Tue, Jul 26
64 °FMild.7 mph73%30.04 "HgN/A
11:20 PM64 °FMild.6 mph73%30.04 "HgN/A
10:50 PM64 °FMild.6 mph73%30.07 "HgN/A
10:20 PM66 °FMild.6 mph68%30.07 "HgN/A
9:50 PM66 °FMild.7 mph68%30.07 "HgN/A
9:20 PM66 °FPassing clouds.5 mph68%30.07 "HgN/A
8:50 PM66 °FPassing clouds.3 mph68%30.07 "HgN/A
8:20 PM66 °FSunny.3 mph68%30.07 "Hg10 mi
7:50 PM68 °FPassing clouds.5 mph64%30.07 "HgN/A
7:20 PM68 °FPassing clouds.7 mph64%30.07 "HgN/A
6:50 PM70 °FPassing clouds.7 mph60%30.07 "HgN/A
6:20 PM70 °FPassing clouds.8 mph60%30.07 "HgN/A
Weather by CustomWeather, © 2016

See weather overviewHow to use our weather pages